This is the latest recevied weather packets stored in our database for station/object F5OZP-13. If no packets are shown the sender has not sent any weather packets the latest 10 day(s).
| Time | Temp. | Humidity | Pressure | Rain* | Wind** | Luminosity | Snow |
|---|---|---|---|---|---|---|---|
| 1777488346 | 20° C | 99% | 1011.2 hPa | - | - | 0 W/m² | - |
| 1777488030 | 20.56° C | 99% | 1011 hPa | - | - | 0 W/m² | - |
| 1777487721 | 20.56° C | 99% | 1010.9 hPa | - | - | 0 W/m² | - |
| 1777487413 | 20.56° C | 99% | 1010.9 hPa | - | - | 0 W/m² | - |
| 1777487105 | 20° C | 99% | 1010.7 hPa | - | - | 0 W/m² | - |
| 1777486797 | 20.56° C | 99% | 1010.6 hPa | - | - | 0 W/m² | - |
| 1777486502 | 20.56° C | 99% | 1010.5 hPa | - | - | 0 W/m² | - |
| 1777486185 | 20.56° C | 99% | 1010.5 hPa | - | - | 0 W/m² | - |
| 1777485876 | 21.11° C | 99% | 1010.4 hPa | - | - | 0 W/m² | - |
| 1777485568 | 21.11° C | 99% | 1010.4 hPa | - | - | 0 W/m² | - |
| 1777485260 | 21.11° C | 99% | 1010.3 hPa | - | - | 0 W/m² | - |
| 1777484952 | 21.67° C | 99% | 1010.3 hPa | - | - | 0 W/m² | - |
| 1777484652 | 21.67° C | 99% | 1010.3 hPa | - | - | 0 W/m² | - |
| 1777484335 | 21.67° C | 99% | 1010.3 hPa | - | - | 0 W/m² | - |
| 1777484027 | 21.67° C | 99% | 1010.2 hPa | - | - | 0 W/m² | - |
| 1777483719 | 22.22° C | 99% | 1010.2 hPa | - | - | 0 W/m² | - |
| 1777483411 | 22.78° C | 99% | 1010.1 hPa | - | - | 0 W/m² | - |
| 1777483103 | 22.22° C | 99% | 1010 hPa | - | - | 0 W/m² | - |
| 1777482803 | 22.22° C | 99% | 1009.9 hPa | - | - | 0 W/m² | - |
| 1777482491 | 22.22° C | 99% | 1009.7 hPa | - | - | 0 W/m² | - |
| 1777482183 | 21.67° C | 99% | 1009.7 hPa | - | - | 0 W/m² | - |
| 1777481875 | 21.67° C | 99% | 1009.7 hPa | - | - | 0 W/m² | - |
| 1777481567 | 21.11° C | 99% | 1009.6 hPa | - | - | 0 W/m² | - |
| 1777481258 | 21.67° C | 99% | 1009.7 hPa | - | - | 0 W/m² | - |
| 1777480958 | 21.67° C | 99% | 1009.7 hPa | - | - | 0 W/m² | - |
* Rain since midnight (hover to see other rain measurements)
** Current wind speed in m/s (hover to see current wind gust speed)